STARLINK-5365, 55498

Orbit data source: Space-Track

STARLINK-5365, 55498 is a payload satellite owned by SpaceX/Seattle (US) in LEO that was launched on Thu, 02 Feb 2023 UTC via an FALCON 9 launch vehicle from the Air Force Eastern Test Range (AFETR). Payload-class satellites include a variety of spacecraft equipped with specific instruments for various scientific and technological missions. These include communications satellites like Starlink; space stations such as the ISS; scientific satellites like the Hubble; Earth observation satellites from companies like Planet Labs, Umbra, and HawkEye 360; GPS; miniature CubeSats for education and research; and military/defense satellites.

Loading next visibility...
Identifier
55498, 2023-015BB
Orbit
LEO
Country
Flag of USUS
Related business
Manufacturer
SpaceX/Seattle
Mission
Operational Commercial Communications
Bus & Motor
STARLINK, Unknown motor
Mass
305 kg wet, ~290 kg dry
Launch date (UTC)
2023-02-02 (3 years ago)
Launch vehicle
FALCON 9
Launch site
Air Force Eastern Test Range (AFETR)
Object type
Payload
Rocket body
Debris
Shape & HBR
Box + 1 Pan, 10.1 m
Radar Cross Section
13.562 m², Large (>1 m²)

Expand to show TLE details & history
Last TLE update: 15 hours ago

TLE from 15 hours ago
0 STARLINK-5365
1 55498U 23015BB  26035.34869328  .00001859  00000-0  15266-3 0  9997
2 55498  43.0002 159.7077 0001226 263.6532  96.4170 15.02530450165594
Epoch: 2026-02-04T08:22Z
TLE epoch observation values (Epoch: 2026-02-04T08:22:07.099Z)
Latitude
-0.00006°
Longitude
-100.3385°
Altitude
558.97 km
Speed
7.584 km/s
True Right ascension
10h 38m 49s
True Declination
0° 00' 00"
Sunlit
Object was in full shadow at epoch
Visualization orbit readout
Latitude
Unknown
Longitude
Unknown
Altitude
Unknown
Speed
Unknown
Apparent Right ascension
Unknown
Apparent Declination
Unknown
Sunlit
N/A
Visualization observer readout
Local Sidereal Time
01:42:28
Azimuth
Unknown
Elevation
Unknown
Doppler factor
Unknown
Orbital elements
Apogee altitude
561.871 km
Perigee altitude
560.17 km
Semi-major axis
6,939.158 km
Eccentricity
0.00012
Inclination
43.0002°
RAAN
159.7077°
Arg. of periapsis
263.6532°
True anomaly
96.43096°
Mean anomaly
96.417°
Eccentric anomaly
96.42398°
Mean motion
3.75477 °/min
Orbital period
95.88 mins
BSTAR
0.00015266
Loading maneuver chart data...
Computing Atmospheric mass density...
Loading historical data...
Loading historical data...
Loading historical data...
Loading historical data...
Loading historical data...
Loading historical data...
Loading historical data...

Documentation

Showing up to 5 results
|